Weather History for Anderson, SC

Change the Weather History Date:

Thursday, January 12, 2012

  Actual Average Record
Temperature  
Mean Temperature 46 °F -  
Max Temperature 57 °F 48 °F 71 °F (1949)
Min Temperature 33 °F 29 °F 10 °F (1982)
Degree Days  
Heating Degree Days 20    
Moisture  
Dew Point 39 °F    
Average Humidity 69    
Maximum Humidity 83    
Minimum Humidity 40    
Precipitation  
Precipitation 0.04 in - - ()
Sea Level Pressure  
Sea Level Pressure 29.67 in    
Wind  
Wind Speed 14 mph (WSW)    
Max Wind Speed 28 mph    
Max Gust Speed 48 mph    
Visibility 10 miles    
Events Rain , Snow    
Averages and records for this station are not official NWS values.
T = Trace of Precipitation, MM = Missing Value Source: NWS Daily Summary

Daily Weather History Graph

Daily Weather History Graph

Search for Another Location

Airport:

Trip Planner

Search our weather history database for the weather conditions in past years. The results will help you decide how hot, cold, wet, or windy it might be!

Date:

Astronomy

Jan. 12, 2012 Rise Set
Actual Time 7:37 AM EST 5:40 PM EST
Civil Twilight 7:10 AM EST 6:07 PM EST
Nautical Twilight 6:39 AM EST 6:38 PM EST
Astronomical Twilight 6:09 AM EST 7:09 PM EST
Moon 9:32 PM EST (1/12) 9:31 AM EST (1/12)
Length of Visible Light 10h 57m
Length of Day
10h 02m
Waning Gibbous, 87% of the Moon is Illuminated
Jan 12
Waning Gibbous
Jan 16
Last Quarter
Jan 23
New
Jan 30
First Quarter
Feb 7
Full

Hourly Weather History & Observations

Time (EST) Temp. Windchill Dew Point Humidity Pressure Visibility Wind Dir Wind Speed Gust Speed Precip Events Conditions
12:56 AM 51.1 °F - 42.1 °F 71% 29.66 in 10.0 mi WSW 13.8 mph 19.6 mph N/A   Overcast
1:56 AM 51.1 °F - 42.1 °F 71% 29.65 in 10.0 mi West 11.5 mph - N/A   Overcast
2:48 AM 50.0 °F - 42.8 °F 76% 29.66 in 10.0 mi WSW 12.7 mph - N/A   Mostly Cloudy
2:56 AM 50.0 °F - 42.1 °F 74% 29.65 in 10.0 mi WSW 10.4 mph - N/A   Mostly Cloudy
3:56 AM 50.0 °F - 43.0 °F 77% 29.66 in 10.0 mi WSW 15.0 mph 21.9 mph N/A   Overcast
4:56 AM 48.9 °F - 43.0 °F 80% 29.65 in 10.0 mi WSW 11.5 mph - N/A   Mostly Cloudy
5:56 AM 48.0 °F - 43.0 °F 83% 29.66 in 10.0 mi SW 9.2 mph - N/A   Clear
6:56 AM 48.9 °F - 42.1 °F 77% 29.68 in 10.0 mi WSW 15.0 mph 24.2 mph N/A   Scattered Clouds
7:56 AM 50.0 °F - 43.0 °F 77% 29.70 in 10.0 mi WSW 11.5 mph - N/A   Overcast
8:56 AM 50.0 °F - 42.1 °F 74% 29.71 in 10.0 mi WSW 17.3 mph 21.9 mph N/A   Overcast
9:56 AM 51.1 °F - 42.1 °F 71% 29.72 in 10.0 mi WSW 20.7 mph 26.5 mph N/A   Overcast
10:56 AM 51.1 °F - 43.0 °F 74% 29.72 in 10.0 mi WSW 13.8 mph - N/A   Overcast
11:56 AM 53.6 °F - 44.6 °F 72% 29.68 in 10.0 mi SW 11.5 mph - N/A   Overcast
12:47 PM 55.4 °F - 42.8 °F 63% 29.66 in 10.0 mi SW 13.8 mph 27.6 mph N/A   Scattered Clouds
12:56 PM 55.9 °F - 42.1 °F 60% 29.65 in 10.0 mi WSW 18.4 mph 27.6 mph N/A   Scattered Clouds
1:56 PM 55.9 °F - 42.1 °F 60% 29.62 in 10.0 mi SW 10.4 mph - N/A   Mostly Cloudy
2:56 PM 57.2 °F - 42.8 °F 59% 29.60 in 10.0 mi SW 15.0 mph - N/A   Overcast
3:56 PM 54.0 °F - 46.9 °F 77% 29.59 in 7.0 mi SSW 13.8 mph - 0.01 in Rain Light Rain
4:56 PM 53.6 °F - 48.2 °F 82% 29.58 in 10.0 mi SW 4.6 mph - N/A   Overcast
5:56 PM 54.0 °F - 48.0 °F 80% 29.57 in 5.0 mi SW 10.4 mph - 0.03 in Rain Light Rain
6:56 PM 53.1 °F - 45.0 °F 74% 29.61 in 10.0 mi West 23.0 mph 33.4 mph 0.00 in   Scattered Clouds
7:56 PM 50.0 °F - 37.9 °F 63% 29.64 in 10.0 mi West 21.9 mph 32.2 mph N/A   Scattered Clouds
8:56 PM 41.0 °F 30.2 °F 27.0 °F 57% 29.71 in 10.0 mi WSW 27.6 mph 48.3 mph N/A   Mostly Cloudy
9:56 PM 37.0 °F 24.9 °F 21.9 °F 54% 29.77 in 9.0 mi West 27.6 mph 43.7 mph 0.00 in Snow Light Snow
10:56 PM 34.0 °F 21.5 °F 15.1 °F 46% 29.81 in 10.0 mi West 24.2 mph 36.8 mph 0.00 in   Clear
11:56 PM 33.1 °F 20.1 °F 10.9 °F 40% 29.85 in 9.0 mi West 25.3 mph 36.8 mph 0.00 in Snow Light Snow